When you browse on this site, cookies collect data to enhance your experience and personalize the content and advertising you see.
Visit our Privacy Policy to learn more. By continuing to use the site, you agree to this use of cookies and data.
  • în România
  • Lista ţărilor
  • Pe 7 zile
  • Temperatura apei
  • Hartă satelitară
  • Meteo pe hartă
  • Widget-uri
  • user-avatar
    Intrare

    Meteo pe oră la Ajuterique

    Astăzi, 25 Aprilie, Joi

    Timp Temperatura Precipitaţii Vânt Presiune Umiditate
    00:00 +24°C° 0 mm 1 m/s 698 mmHg 73%
    01:00 +23°C° 0 mm 1 m/s 698 mmHg 77%
    02:00 +23°C° 0 mm 1 m/s 697 mmHg 80%
    03:00 +22°C° 0 mm 1 m/s 697 mmHg 84%
    04:00 +22°C° 0 mm 1 m/s 697 mmHg 86%
    05:00 +22°C° 0 mm 1 m/s 697 mmHg 87%
    06:00 +22°C° 0 mm 1 m/s 698 mmHg 89%
    07:00 +25°C° 0 mm 1 m/s 698 mmHg 76%
    08:00 +28°C° 0 mm 2 m/s 699 mmHg 63%
    09:00 +31°C° 0 mm 2 m/s 700 mmHg 50%
    10:00 +34°C° 0 mm 2 m/s 700 mmHg 43%
    11:00 +36°C° 0 mm 2 m/s 699 mmHg 37%
    12:00 +38°C° 0 mm 2 m/s 699 mmHg 30%
    13:00 +37°C° 0 mm 2 m/s 699 mmHg 31%
    14:00 +37°C° 0 mm 2 m/s 698 mmHg 32%
    15:00 +36°C° 0 mm 2 m/s 697 mmHg 34%
    16:00 +34°C° 0 mm 2 m/s 697 mmHg 40%
    17:00 +32°C° 0 mm 2 m/s 697 mmHg 46%
    18:00 +30°C° 0 mm 2 m/s 697 mmHg 51%
    19:00 +29°C° 0.1 mm 2 m/s 698 mmHg 59%
    20:00 +27°C° 0.1 mm 1 m/s 698 mmHg 66%
    21:00 +26°C° 0.1 mm 1 m/s 699 mmHg 73%
    22:00 +25°C° 0 mm 1 m/s 699 mmHg 77%
    23:00 +25°C° 0 mm 1 m/s 699 mmHg 80%

    Mâine, 26 Aprilie, Vineri

    Timp Temperatura Precipitaţii Vânt Presiune Umiditate
    00:00 +24°C° 0 mm 1 m/s 699 mmHg 84%
    01:00 +24°C° 0 mm 1 m/s 698 mmHg 85%
    02:00 +24°C° 0 mm 1 m/s 698 mmHg 86%
    03:00 +23°C° 0 mm 1 m/s 698 mmHg 88%
    04:00 +24°C° 0.1 mm 1 m/s 698 mmHg 87%
    05:00 +24°C° 0.1 mm 1 m/s 699 mmHg 87%
    06:00 +24°C° 0.1 mm 1 m/s 699 mmHg 86%
    07:00 +27°C° 0 mm 1 m/s 700 mmHg 72%
    08:00 +30°C° 0 mm 1 m/s 700 mmHg 59%
    09:00 +31°C° 0 mm 0 m/s 701 mmHg 45%
    10:00 +34°C° 0 mm 1 m/s 701 mmHg 41%
    11:00 +36°C° 0 mm 2 m/s 700 mmHg 36%
    12:00 +37°C° 0 mm 3 m/s 700 mmHg 31%
    13:00 +37°C° 0 mm 4 m/s 699 mmHg 31%
    14:00 +37°C° 0 mm 4 m/s 699 mmHg 30%
    15:00 +37°C° 0 mm 4 m/s 698 mmHg 29%
    16:00 +35°C° 0 mm 4 m/s 698 mmHg 35%
    17:00 +33°C° 0 mm 4 m/s 698 mmHg 42%
    18:00 +31°C° 0 mm 3 m/s 698 mmHg 48%
    19:00 +29°C° 0 mm 3 m/s 698 mmHg 53%
    20:00 +27°C° 0 mm 2 m/s 699 mmHg 59%
    21:00 +26°C° 0 mm 1 m/s 699 mmHg 65%
    22:00 +25°C° 0 mm 1 m/s 699 mmHg 69%
    23:00 +24°C° 0 mm 1 m/s 699 mmHg 73%

    Poimâine, 27 Aprilie, Sâmbătă

    Timp Temperatura Precipitaţii Vânt Presiune Umiditate
    00:00 +24°C° 0 mm 1 m/s 699 mmHg 77%
    01:00 +23°C° 0 mm 1 m/s 699 mmHg 81%
    02:00 +23°C° 0 mm 1 m/s 698 mmHg 85%
    03:00 +22°C° 0 mm 1 m/s 698 mmHg 89%
    04:00 +22°C° 0 mm 1 m/s 698 mmHg 89%
    05:00 +22°C° 0 mm 1 m/s 698 mmHg 89%
    06:00 +21°C° 0 mm 1 m/s 698 mmHg 89%
    07:00 +25°C° 0 mm 1 m/s 699 mmHg 70%
    08:00 +28°C° 0 mm 2 m/s 700 mmHg 51%
    09:00 +31°C° 0 mm 2 m/s 701 mmHg 32%
    10:00 +32°C° 0 mm 2 m/s 700 mmHg 28%
    11:00 +35°C° 0 mm 2 m/s 700 mmHg 24%
    12:00 +37°C° 0 mm 3 m/s 700 mmHg 21%
    13:00 +37°C° 0 mm 3 m/s 699 mmHg 20%
    14:00 +37°C° 0 mm 3 m/s 698 mmHg 20%
    15:00 +37°C° 0 mm 3 m/s 697 mmHg 19%
    16:00 +35°C° 0 mm 2 m/s 697 mmHg 23%
    17:00 +32°C° 0 mm 2 m/s 697 mmHg 28%
    18:00 +30°C° 0 mm 2 m/s 697 mmHg 32%
    19:00 +29°C° 0 mm 2 m/s 697 mmHg 41%
    20:00 +27°C° 0 mm 1 m/s 698 mmHg 49%
    21:00 +25°C° 0 mm 1 m/s 699 mmHg 57%
    22:00 +24°C° 0 mm 1 m/s 699 mmHg 62%
    23:00 +24°C° 0 mm 1 m/s 698 mmHg 67%

    28 Aprilie, Duminică

    Timp Temperatura Precipitaţii Vânt Presiune Umiditate
    00:00 +23°C° 0 mm 1 m/s 698 mmHg 72%
    01:00 +21°C° 0 mm 0 m/s 698 mmHg 74%
    02:00 +20°C° 0 mm 0 m/s 698 mmHg 77%
    03:00 +20°C° 0 mm 0 m/s 697 mmHg 79%
    04:00 +20°C° 0 mm 0 m/s 697 mmHg 80%
    05:00 +20°C° 0 mm 0 m/s 698 mmHg 80%
    06:00 +20°C° 0 mm 0 m/s 698 mmHg 81%
    07:00 +25°C° 0 mm 1 m/s 699 mmHg 68%
    08:00 +29°C° 0 mm 1 m/s 700 mmHg 54%
    09:00 +32°C° 0 mm 1 m/s 700 mmHg 41%
    10:00 +34°C° 0 mm 1 m/s 700 mmHg 35%
    11:00 +37°C° 0 mm 2 m/s 700 mmHg 29%
    12:00 +38°C° 0 mm 2 m/s 699 mmHg 24%
    13:00 +38°C° 0 mm 2 m/s 699 mmHg 22%
    14:00 +39°C° 0 mm 2 m/s 698 mmHg 21%
    15:00 +39°C° 0 mm 2 m/s 697 mmHg 20%
    16:00 +37°C° 0 mm 2 m/s 697 mmHg 26%
    17:00 +35°C° 0 mm 2 m/s 697 mmHg 32%
    18:00 +32°C° 0 mm 2 m/s 697 mmHg 37%
    19:00 +30°C° 0.3 mm 2 m/s 698 mmHg 50%
    20:00 +28°C° 0.3 mm 1 m/s 698 mmHg 63%
    21:00 +26°C° 0.3 mm 1 m/s 699 mmHg 76%
    22:00 +26°C° 0.2 mm 1 m/s 699 mmHg 79%
    23:00 +25°C° 0.2 mm 1 m/s 698 mmHg 81%

    29 Aprilie, Luni

    Timp Temperatura Precipitaţii Vânt Presiune Umiditate
    00:00 +25°C° 0.2 mm 1 m/s 698 mmHg 84%
    01:00 +24°C° 0 mm 1 m/s 698 mmHg 86%
    02:00 +24°C° 0 mm 1 m/s 698 mmHg 88%
    03:00 +23°C° 0 mm 1 m/s 697 mmHg 91%
    04:00 +23°C° 0 mm 1 m/s 698 mmHg 91%
    05:00 +23°C° 0 mm 1 m/s 698 mmHg 91%
    06:00 +21°C° 0 mm 0 m/s 698 mmHg 92%
    07:00 +26°C° 0 mm 1 m/s 699 mmHg 78%
    08:00 +28°C° 0 mm 1 m/s 700 mmHg 64%
    09:00 +31°C° 0 mm 2 m/s 700 mmHg 51%
    10:00 +34°C° 0 mm 2 m/s 700 mmHg 45%
    11:00 +35°C° 0 mm 2 m/s 700 mmHg 39%
    12:00 +37°C° 0 mm 2 m/s 699 mmHg 33%
    13:00 +36°C° 0 mm 2 m/s 699 mmHg 35%
    14:00 +35°C° 0 mm 2 m/s 698 mmHg 37%
    15:00 +33°C° 0 mm 1 m/s 697 mmHg 39%
    16:00 +32°C° 0 mm 2 m/s 697 mmHg 43%
    17:00 +31°C° 0 mm 2 m/s 698 mmHg 47%
    18:00 +30°C° 0 mm 2 m/s 698 mmHg 51%
    19:00 +28°C° 0.7 mm 2 m/s 698 mmHg 61%
    20:00 +27°C° 0.7 mm 2 m/s 699 mmHg 71%
    21:00 +25°C° 0.7 mm 1 m/s 699 mmHg 81%
    22:00 +25°C° 0.1 mm 1 m/s 699 mmHg 83%
    23:00 +24°C° 0.1 mm 1 m/s 698 mmHg 85%

    30 Aprilie, Marţi

    Timp Temperatura Precipitaţii Vânt Presiune Umiditate
    00:00 +24°C° 0.1 mm 1 m/s 698 mmHg 87%
    01:00 +23°C° 0 mm 1 m/s 698 mmHg 88%
    02:00 +23°C° 0 mm 1 m/s 698 mmHg 89%
    03:00 +22°C° 0 mm 1 m/s 697 mmHg 90%
    04:00 +22°C° 0 mm 1 m/s 698 mmHg 90%
    05:00 +22°C° 0 mm 1 m/s 698 mmHg 90%
    06:00 +22°C° 0 mm 1 m/s 698 mmHg 89%
    07:00 +25°C° 0 mm 1 m/s 699 mmHg 78%
    08:00 +27°C° 0 mm 2 m/s 699 mmHg 66%
    09:00 +29°C° 0 mm 2 m/s 700 mmHg 55%
    10:00 +31°C° 0 mm 3 m/s 700 mmHg 49%
    11:00 +34°C° 0 mm 3 m/s 699 mmHg 42%
    12:00 +35°C° 0 mm 3 m/s 699 mmHg 36%
    13:00 +35°C° 0 mm 3 m/s 699 mmHg 36%
    14:00 +35°C° 0 mm 3 m/s 698 mmHg 36%
    15:00 +35°C° 0 mm 4 m/s 697 mmHg 35%
    16:00 +34°C° 0 mm 3 m/s 698 mmHg 41%
    17:00 +31°C° 0 mm 2 m/s 698 mmHg 46%
    18:00 +30°C° 0 mm 2 m/s 698 mmHg 51%
    19:00 +28°C° 0.1 mm 2 m/s 698 mmHg 60%
    20:00 +27°C° 0.1 mm 1 m/s 699 mmHg 68%
    21:00 +25°C° 0.1 mm 1 m/s 699 mmHg 76%
    22:00 +25°C° 0 mm 1 m/s 699 mmHg 79%
    23:00 +24°C° 0 mm 1 m/s 699 mmHg 82%
    Arată mai mult